Tracking 25620 objects as of 18-May-2022
HD Live streaming from Space Station
objects crossing your sky now

STARLINK-1351

Track STARLINK-1351 now!
10-day predictions
STARLINK-1351 is classified as:


NORAD ID: 45697
Int'l Code: 2020-035AS
Perigee: 553.2 km
Apogee: 555.5 km
Inclination: 53.1 °
Period: 95.6 minutes
Semi major axis: 6925 km
RCS: Unknown
Launch date: June 4, 2020
Source: United States (US)
Launch site: AIR FORCE EASTERN TEST RANGE (AFETR)
aabbcc
Your satellite tracking list
Your tracking list is empty




NASA's NSSDC Master Catalog

Two Line Element Set (TLE):
1 45697U 20035AS  22138.44255427  .00000950  00000-0  82662-4 0  9992
2 45697  53.0549 162.1761 0001686  54.7557 305.3589 15.06397575109053
Source of the keplerian elements: AFSPC